#timestamp,LO_Frequency,Hit,StdDev 
1512043215.1,286046991.8,P
1512043216.0,286046991.8,Y
1512043235.8,286046997.2,P
1512043255.6,286046995.7,P
1512043275.5,286046999.6,N
1512043295.3,286047001.2,N
1512043315.1,286046997.6,N
1512043335.9,286046997.1,N
1512043355.7,286046996.7,N
1512043375.5,286046996.5,N
1512043395.4,286046998.2,N
1512043415.2,286046994.9,N
1512043435.0,286046996.6,N
1512043435.9,286046996.6,N
1512043455.7,286046995.3,N
1512043475.6,286046996.0,N
1512043495.4,286046996.8,N
1512043515.2,286046999.6,N
1512043535.1,286047001.2,N
1512043536.0,286047001.2,N
1512043555.8,286046999.6,N
1512043575.6,286046998.2,N
1512043595.5,286046999.6,N
1512043615.3,286047000.4,N
1512043635.1,286046999.2,N
1512043655.9,286046998.7,N
1512043675.7,286046996.9,N
1512043695.5,286047000.8,N
1512043715.4,286046998.1,N
1512043735.2,286046999.4,N
1512043755.0,286046999.1,N
1512043755.9,286046999.1,N
1512043775.8,286046999.2,N
1512043795.6,286046997.5,N
1512043815.4,286046997.2,N
1512043835.2,286046997.0,N
1512043855.1,286046999.5,N
1512043856.0,286046999.5,N
1512043875.8,286046997.8,N
1512043895.6,286046996.9,N
1512043915.5,286046997.8,N
1512043935.3,286046998.5,N
1512043955.1,286047000.9,N
1512043975.9,286047000.9,N
1512043995.7,286047001.9,N
1512044015.5,286047004.4,N
1512044035.4,286047002.3,N
1512044055.2,286047002.4,N
1512044075.0,286047000.5,N
1512044075.9,286047000.5,N
1512044095.8,286046999.5,N
1512044115.6,286046997.7,N
1512044135.4,286046997.9,N
1512044155.2,286046998.8,N
1512044175.1,286047000.0,N
1512044176.0,286047000.0,N
1512044195.8,286046998.5,N
1512044215.6,286046997.0,N
1512044235.5,286046997.0,N
1512044255.3,286046996.9,N
1512044275.1,286046999.1,N
1512044295.9,286046994.9,N
1512044315.7,286046997.3,N
1512044335.5,286046999.0,N
1512044355.4,286046998.7,N
1512044375.2,286046996.5,N
1512044395.0,286046998.5,N
1512044395.9,286046998.5,N
1512044415.8,286047000.0,N
1512044435.6,286047001.1,N
1512044455.4,286046998.6,N
1512044475.3,286047000.9,N
1512044495.1,286046996.8,N
1512044496.0,286046996.8,N
1512044515.8,286046993.4,Y
1512044535.7,286046993.3,P
1512044555.5,286046990.1,P
1512044575.3,286046994.7,N
1512044595.2,286046990.2,Y
1512044615.9,286046995.2,P
1512044635.7,286046998.0,P
1512044655.6,286046993.3,P
1512044675.4,286046994.4,Y
1512044695.2,286046997.6,P
1512044715.1,286046999.5,N
1512044716.0,286046999.5,N
1512044735.8,286046999.4,N
1512044755.6,286046998.9,N
1512044775.5,286046999.3,N
1512044795.3,286047000.6,N
1512044815.1,286046998.5,N
1512044835.8,286046999.5,N
1512044855.7,286046998.3,N
1512044875.5,286046997.1,N
1512044895.3,286046996.9,N
1512044915.2,286046998.2,N
1512044935.0,286046998.6,N
1512044935.9,286046998.6,N
1512044955.7,286046996.8,N
1512044975.6,286046993.7,Y
1512044995.4,286046997.4,P
1512045015.2,286046998.2,P
1512045035.1,286046998.1,P
1512045036.0,286046998.1,Y
1512045055.8,286047000.0,P
1512045075.6,286046999.9,N
1512045095.5,286047001.5,N
1512045115.3,286047004.2,Y
1512045135.1,286047000.2,P
1512045155.9,286046998.3,P
1512045175.7,286046999.9,N
1512045195.5,286047000.2,N
1512045215.4,286047000.2,N
1512045235.2,286046999.0,N
1512045255.0,286046998.1,N
1512045255.9,286046998.1,N
1512045275.8,286046998.6,N
1512045295.6,286046996.8,Y
1512045315.4,286046996.9,P
1512045335.3,286047002.3,N
1512045355.1,286047002.1,N
1512045375.8,286047001.9,N
1512045395.7,286047004.4,N
1512045415.5,286047005.5,N
1512045435.3,286047005.4,N
1512045455.2,286047007.0,N
1512045475.9,286047010.4,Y
1512045495.7,286047007.0,P
1512045515.6,286047007.5,P
1512045535.4,286047007.5,P
1512045555.2,286047007.7,Y
1512045575.1,286047003.5,P
1512045576.0,286047003.5,N
1512045595.8,286047001.3,N
1512045615.6,286047003.8,N
1512045635.5,286047003.2,N
1512045655.3,286047006.0,Y
1512045675.1,286047000.9,P
1512045695.9,286046999.1,N
1512045715.7,286047000.9,N
1512045735.5,286047000.8,N
1512045755.3,286047000.5,N
1512045775.2,286046999.7,N
1512045795.0,286047000.2,N
1512045795.9,286047000.2,N
1512045815.7,286047002.1,N
1512045835.6,286046999.7,N
1512045855.4,286047002.6,N
1512045875.2,286047004.0,Y
1512045895.1,286046999.9,P
1512045896.0,286046999.9,N
1512045915.8,286047000.3,N
1512045935.7,286046998.2,Y
1512045955.5,286046999.9,P
1512045975.3,286047002.5,P
1512045995.1,286047002.2,N
1512046015.9,286047002.2,N
1512046035.7,286046999.8,N
1512046055.5,286046998.5,N
1512046075.4,286046999.0,N
1512046095.2,286047000.4,N
1512046115.0,286047005.8,Y
1512046115.9,286047005.8,P
1512046135.8,286047007.4,N
1512046155.6,286047008.9,P
1512046175.4,286047008.6,N
1512046195.3,286047007.3,N
1512046215.1,286047004.7,N
1512046216.0,286047004.7,N
1512046235.8,286047006.5,N
1512046255.7,286047007.8,Y
1512046275.5,286047002.4,P
1512046295.3,286046999.9,N
1512046315.2,286046999.8,N
1512046335.9,286047001.4,N
1512046355.7,286046999.8,N
1512046375.6,286047002.3,N
1512046395.4,286046999.0,N
1512046415.2,286046996.7,N
1512046435.1,286047001.2,N
1512046436.0,286047001.2,N
1512046455.8,286046998.4,N
1512046475.6,286046998.1,N
1512046495.5,286047002.1,N
1512046515.3,286047000.5,N
1512046535.1,286046996.9,N
1512046555.8,286046997.3,N
1512046575.7,286046999.1,N
1512046595.5,286046995.5,N
1512046615.3,286046996.1,N
1512046635.2,286046994.9,N
1512046655.9,286046993.7,N
1512046675.7,286046997.4,N
1512046695.6,286046998.7,N
1512046715.4,286046998.0,N
1512046735.2,286046998.2,N
1512046755.1,286047004.3,N
1512046756.0,286047004.3,N
1512046775.8,286047002.1,N
1512046795.6,286047002.0,N
